FlightSource - Aviation Photo Database

World Wide Airport Lookup


Search by ICAO
Or
Search by City

FlightSource.ca - Aviation Photo Database - Berbérati Airport Information
Airport Identification
Name: Berbérati Airport
ICAO: FEFT
IATA: BBT
Airport Location
City: Berbérati
Region: HS
Country: Central African Republic
Continent: Africa
Latitude: 4.22158
Longitude: 15.7864
Airport Information
Type: Medium Airport
Elevation: 1929 Feet ASL
Flight Status: FEFT
More Info: FEFT
Airport Weather    
Metar: FEFT 161000Z 00000KT 9999 BKN022 29/23 Q1012
TAF:


Advertisement